FFT4919 KMCO-KDEN

Flight info

Callsign FFT4919
Flight time N/A
Altitude 34000
Route RDSOX1 JFRYS PATOY Q116 JAWJA SZW SQS PER GCK KIISS CLASH5
Aircraft A21N/M-SDE2E3FGHIRWXY/LB1

Departure

Time 2026-04-21 17:31
Airport Orlando International Airport (KMCO)

Arrival

Time N/A
Airport Denver International Airport (KDEN)
Time Latitude Longitude Altitude Speed Heading
2026-04-21 17:14 28.43597 -81.31305 100 ft 0 kts 166°
2026-04-21 17:19 28.43602 -81.31306 100 ft 2 kts 166°
2026-04-21 17:19 28.43618 -81.31311 100 ft 2 kts 166°
2026-04-21 17:20 28.43635 -81.31315 99 ft 2 kts 166°
2026-04-21 17:20 28.43651 -81.31320 98 ft 3 kts 169°
2026-04-21 17:20 28.43667 -81.31318 100 ft 3 kts 208°
2026-04-21 17:20 28.43681 -81.31306 100 ft 3 kts 236°
2026-04-21 17:21 28.43691 -81.31288 100 ft 2 kts 243°
2026-04-21 17:21 28.43690 -81.31298 100 ft 3 kts 256°
2026-04-21 17:21 28.43689 -81.31301 100 ft 0 kts 257°
2026-04-21 17:24 28.43689 -81.31302 102 ft 0 kts 257°
2026-04-21 17:25 28.43686 -81.31315 101 ft 4 kts 257°
2026-04-21 17:25 28.43684 -81.31368 102 ft 9 kts 275°
2026-04-21 17:25 28.43698 -81.31459 103 ft 14 kts 280°
2026-04-21 17:25 28.43701 -81.31579 104 ft 16 kts 250°
2026-04-21 17:26 28.43607 -81.31642 103 ft 17 kts 185°
2026-04-21 17:26 28.43489 -81.31668 101 ft 18 kts 191°
2026-04-21 17:26 28.43362 -81.31696 102 ft 19 kts 191°
2026-04-21 17:26 28.43254 -81.31778 103 ft 20 kts 236°
2026-04-21 17:27 28.43162 -81.31843 103 ft 15 kts 174°
2026-04-21 17:27 28.43056 -81.31839 103 ft 16 kts 179°
2026-04-21 17:27 28.42931 -81.31837 103 ft 20 kts 179°
2026-04-21 17:27 28.42789 -81.31835 105 ft 21 kts 179°
2026-04-21 17:28 28.42637 -81.31834 107 ft 23 kts 180°
2026-04-21 17:28 28.42476 -81.31833 106 ft 24 kts 180°
2026-04-21 17:28 28.42309 -81.31833 105 ft 24 kts 180°
2026-04-21 17:28 28.42140 -81.31869 104 ft 25 kts 194°
2026-04-21 17:29 28.41961 -81.31877 103 ft 26 kts 180°
2026-04-21 17:29 28.41772 -81.31875 103 ft 28 kts 179°
2026-04-21 17:29 28.41596 -81.31878 103 ft 21 kts 188°
2026-04-21 17:29 28.41543 -81.32012 103 ft 22 kts 270°
2026-04-21 17:30 28.41543 -81.32167 103 ft 13 kts 280°
2026-04-21 17:30 28.41627 -81.32203 103 ft 14 kts 10°
2026-04-21 17:30 28.41720 -81.32199 102 ft 14 kts 358°
2026-04-21 17:30 28.41950 -81.32202 104 ft 68 kts 358°
2026-04-21 17:31 28.42676 -81.32206 107 ft 138 kts
2026-04-21 17:31 28.43816 -81.32223 166 ft 180 kts
2026-04-21 17:31 28.45061 -81.32253 943 ft 179 kts
2026-04-21 17:31 28.46322 -81.32294 1596 ft 186 kts
2026-04-21 17:32 28.47201 -81.32305 1984 ft 196 kts
2026-04-21 17:32 28.49143 -81.32298 2713 ft 221 kts
2026-04-21 17:32 28.50740 -81.32298 3353 ft 234 kts
2026-04-21 17:32 28.52389 -81.32448 4193 ft 241 kts 358°
2026-04-21 17:33 28.54063 -81.32690 5091 ft 245 kts 355°
2026-04-21 17:33 28.55724 -81.33249 5982 ft 252 kts 341°
2026-04-21 17:33 28.56794 -81.33790 6585 ft 254 kts 339°
2026-04-21 17:33 28.58810 -81.35185 7674 ft 263 kts 317°
2026-04-21 17:34 28.59750 -81.36997 8370 ft 277 kts 287°
2026-04-21 17:34 28.59919 -81.39240 8885 ft 293 kts 271°
2026-04-21 17:34 28.59863 -81.40823 9366 ft 298 kts 269°
2026-04-21 17:34 28.59771 -81.43155 10253 ft 298 kts 270°
2026-04-21 17:35 28.59697 -81.45597 10730 ft 314 kts 271°
2026-04-21 17:35 28.59641 -81.48141 11150 ft 329 kts 269°
2026-04-21 17:35 28.59226 -81.50704 11759 ft 339 kts 255°
2026-04-21 17:35 28.58292 -81.53216 12555 ft 343 kts 248°
2026-04-21 17:36 28.57257 -81.55672 13359 ft 345 kts 246°
2026-04-21 17:36 28.56232 -81.58112 14129 ft 347 kts 248°
2026-04-21 17:36 28.55190 -81.60644 14838 ft 350 kts 248°
2026-04-21 17:36 28.54180 -81.63129 15530 ft 352 kts 248°
2026-04-21 17:37 28.53155 -81.65667 16229 ft 354 kts 248°
2026-04-21 17:37 28.52128 -81.68225 16910 ft 357 kts 248°
2026-04-21 17:37 28.51091 -81.70804 17591 ft 360 kts 248°
2026-04-21 17:37 28.50044 -81.73401 18272 ft 363 kts 248°
2026-04-21 17:38 28.48989 -81.76022 18908 ft 365 kts 248°
2026-04-21 17:38 28.47933 -81.78647 19502 ft 367 kts 248°
2026-04-21 17:38 28.46867 -81.81293 20103 ft 368 kts 248°
2026-04-21 17:38 28.45796 -81.83944 20715 ft 369 kts 248°
2026-04-21 17:39 28.44725 -81.86597 21321 ft 370 kts 249°
2026-04-21 17:39 28.43649 -81.89264 21924 ft 371 kts 249°
2026-04-21 17:39 28.42793 -81.92013 22506 ft 368 kts 260°
2026-04-21 17:39 28.42529 -81.94890 23067 ft 366 kts 271°
2026-04-21 17:40 28.42571 -81.97784 23657 ft 366 kts 273°
2026-04-21 17:40 28.42643 -82.00680 24176 ft 367 kts 273°
2026-04-21 17:40 28.42706 -82.03593 24626 ft 369 kts 273°
2026-04-21 17:40 28.42760 -82.06515 25058 ft 371 kts 273°
2026-04-21 17:41 28.42809 -82.09450 25482 ft 373 kts 274°
2026-04-21 17:41 28.42854 -82.12400 25895 ft 375 kts 274°
2026-04-21 17:41 28.42900 -82.15376 26306 ft 377 kts 274°
2026-04-21 17:41 28.42948 -82.18352 26702 ft 379 kts 274°
2026-04-21 17:42 28.43006 -82.21360 27093 ft 381 kts 275°
2026-04-21 17:42 28.43068 -82.24377 27484 ft 383 kts 275°
2026-04-21 17:42 28.43120 -82.27409 27875 ft 385 kts 275°
2026-04-21 17:42 28.43163 -82.30459 28260 ft 387 kts 275°
2026-04-21 17:43 28.43204 -82.33518 28623 ft 389 kts 275°
2026-04-21 17:43 28.43248 -82.36597 28979 ft 391 kts 275°
2026-04-21 17:43 28.43300 -82.39690 29326 ft 392 kts 276°
2026-04-21 17:43 28.43614 -82.42765 29572 ft 392 kts 285°
2026-04-21 17:44 28.44462 -82.45671 29851 ft 391 kts 297°
2026-04-21 17:44 28.45892 -82.48339 30198 ft 392 kts 308°
2026-04-21 17:44 28.47768 -82.50521 30538 ft 392 kts 320°
2026-04-21 17:44 28.50042 -82.52256 30845 ft 395 kts 327°
2026-04-21 17:45 28.52438 -82.53810 31127 ft 396 kts 328°
2026-04-21 17:45 28.54842 -82.55348 31401 ft 397 kts 328°
2026-04-21 17:45 28.57239 -82.56912 31718 ft 397 kts 327°
2026-04-21 17:45 28.59618 -82.58487 32057 ft 396 kts 327°
2026-04-21 17:46 28.61994 -82.60072 32381 ft 395 kts 327°
2026-04-21 17:46 28.64361 -82.61655 32704 ft 394 kts 327°
2026-04-21 17:46 28.66714 -82.63232 33015 ft 393 kts 327°
2026-04-21 17:46 28.69062 -82.64815 33315 ft 392 kts 327°
2026-04-21 17:47 28.71411 -82.66392 33637 ft 391 kts 327°
2026-04-21 17:47 28.73753 -82.67962 33904 ft 390 kts 327°
2026-04-21 17:47 28.76100 -82.69537 34023 ft 394 kts 327°
2026-04-21 17:47 28.78477 -82.71136 33985 ft 400 kts 327°
2026-04-21 17:48 28.83338 -82.74401 33966 ft 407 kts 327°
2026-04-21 17:48 28.88218 -82.77688 33955 ft 407 kts 327°
2026-04-21 17:49 28.93089 -82.80974 33954 ft 411 kts 327°
2026-04-21 17:49 28.98012 -82.84299 33956 ft 411 kts 327°
2026-04-21 17:50 29.02934 -82.87628 33953 ft 411 kts 327°
2026-04-21 17:50 29.07763 -82.91094 33974 ft 407 kts 322°
2026-04-21 17:51 29.12364 -82.94852 33955 ft 406 kts 322°
2026-04-21 17:51 29.16973 -82.98613 33950 ft 406 kts 322°
2026-04-21 17:52 29.21543 -83.02356 33951 ft 406 kts 322°
2026-04-21 17:52 29.26137 -83.06123 33956 ft 406 kts 322°
2026-04-21 17:53 29.30736 -83.09915 33956 ft 406 kts 322°
2026-04-21 17:53 29.35344 -83.13686 33954 ft 407 kts 322°
2026-04-21 17:54 29.39947 -83.17452 33956 ft 407 kts 322°
2026-04-21 17:54 29.44553 -83.21231 33953 ft 407 kts 322°
2026-04-21 17:55 29.49136 -83.24982 33957 ft 407 kts 322°
2026-04-21 17:55 29.53765 -83.28795 33956 ft 407 kts 322°
2026-04-21 17:56 29.58343 -83.32566 33961 ft 407 kts 322°
2026-04-21 17:56 29.62943 -83.36363 33973 ft 407 kts 322°
2026-04-21 17:57 29.67539 -83.40167 33980 ft 406 kts 322°
2026-04-21 17:57 29.72114 -83.43964 33962 ft 405 kts 322°
2026-04-21 17:58 29.76691 -83.47757 33963 ft 405 kts 322°
2026-04-21 17:58 29.81268 -83.51547 33969 ft 405 kts 322°
2026-04-21 17:59 29.85845 -83.55346 33968 ft 407 kts 322°
2026-04-21 17:59 29.90441 -83.59172 33972 ft 407 kts 322°
2026-04-21 18:00 29.95029 -83.62988 33972 ft 407 kts 322°
2026-04-21 18:00 29.99586 -83.66785 33983 ft 405 kts 321°
2026-04-21 18:01 30.04160 -83.70603 33981 ft 406 kts 321°
2026-04-21 18:01 30.08740 -83.74425 33979 ft 406 kts 321°
2026-04-21 18:02 30.13309 -83.78241 33976 ft 406 kts 321°
2026-04-21 18:02 30.17724 -83.82278 33973 ft 403 kts 312°
2026-04-21 18:03 30.21292 -83.87277 33976 ft 403 kts 308°
2026-04-21 18:03 30.24746 -83.92334 33965 ft 404 kts 308°
2026-04-21 18:04 30.28240 -83.97438 33985 ft 403 kts 307°
2026-04-21 18:04 30.31742 -84.02519 33973 ft 403 kts 308°
2026-04-21 18:05 30.35237 -84.07597 33969 ft 403 kts 307°
2026-04-21 18:05 30.38717 -84.12676 33968 ft 403 kts 307°
2026-04-21 18:06 30.42201 -84.17770 33965 ft 403 kts 307°
2026-04-21 18:06 30.45657 -84.22824 33962 ft 403 kts 308°
2026-04-21 18:07 30.49141 -84.27911 33958 ft 403 kts 307°
2026-04-21 18:07 30.52626 -84.33024 33957 ft 405 kts 307°
2026-04-21 18:08 30.56035 -84.38233 33977 ft 404 kts 302°
2026-04-21 18:08 30.59006 -84.43771 33981 ft 404 kts 301°
2026-04-21 18:09 30.61950 -84.49333 33979 ft 404 kts 301°
2026-04-21 18:09 30.64866 -84.54913 33980 ft 404 kts 301°
2026-04-21 18:10 30.67802 -84.60477 33980 ft 404 kts 301°
2026-04-21 18:10 30.70733 -84.66011 33978 ft 404 kts 301°
2026-04-21 18:11 30.73683 -84.71582 33978 ft 405 kts 301°
2026-04-21 18:11 30.76647 -84.77167 33982 ft 405 kts 301°
2026-04-21 18:12 30.79588 -84.82753 33975 ft 405 kts 301°
2026-04-21 18:12 30.82520 -84.88354 33976 ft 405 kts 301°
2026-04-21 18:13 30.85457 -84.93959 33979 ft 405 kts 301°
2026-04-21 18:13 30.88380 -84.99547 33981 ft 403 kts 301°
2026-04-21 18:14 30.92769 -85.07919 33977 ft 405 kts 300°
2026-04-21 18:15 30.95701 -85.13531 33968 ft 405 kts 300°
2026-04-21 18:15 30.98624 -85.19149 33967 ft 405 kts 300°
2026-04-21 18:16 31.01509 -85.24786 33988 ft 405 kts 300°
2026-04-21 18:16 31.04403 -85.30379 33961 ft 405 kts 301°
2026-04-21 18:17 31.07354 -85.35984 33981 ft 405 kts 300°
2026-04-21 18:17 31.10278 -85.41603 33989 ft 406 kts 300°
2026-04-21 18:18 31.13213 -85.47271 33998 ft 409 kts 300°
2026-04-21 18:18 31.16160 -85.52973 34001 ft 409 kts 300°
2026-04-21 18:19 31.18596 -85.57697 33960 ft 407 kts 299°
2026-04-21 18:19 31.21515 -85.63366 33968 ft 407 kts 299°
2026-04-21 18:20 31.24899 -85.69946 33994 ft 407 kts 299°
2026-04-21 18:20 31.27337 -85.74703 33997 ft 407 kts 299°
2026-04-21 18:21 31.30222 -85.80341 33995 ft 407 kts 299°
2026-04-21 18:21 31.33103 -85.86045 33982 ft 407 kts 299°
2026-04-21 18:22 31.36001 -85.91744 33983 ft 407 kts 299°
2026-04-21 18:22 31.38908 -85.97441 33978 ft 407 kts 299°
2026-04-21 18:23 31.41812 -86.03136 33976 ft 408 kts 299°
2026-04-21 18:23 31.44716 -86.08839 33981 ft 408 kts 299°
2026-04-21 18:24 31.47639 -86.14510 33999 ft 405 kts 300°
2026-04-21 18:24 31.50534 -86.20160 33981 ft 407 kts 298°
2026-04-21 18:25 31.53431 -86.25872 33979 ft 408 kts 298°
2026-04-21 18:25 31.56333 -86.31600 33977 ft 408 kts 298°
2026-04-21 18:26 31.59227 -86.37323 33938 ft 408 kts 298°
2026-04-21 18:26 31.62113 -86.43053 33933 ft 408 kts 298°
2026-04-21 18:27 31.65002 -86.48790 33950 ft 408 kts 298°
2026-04-21 18:27 31.67872 -86.54484 33945 ft 408 kts 298°
2026-04-21 18:28 31.70764 -86.60250 33945 ft 413 kts 298°
2026-04-21 18:28 31.73686 -86.66082 33959 ft 414 kts 298°
2026-04-21 18:29 31.76615 -86.71918 33969 ft 412 kts 298°
2026-04-21 18:29 31.79513 -86.77716 33944 ft 410 kts 298°
2026-04-21 18:30 31.82389 -86.83504 33933 ft 410 kts 297°
2026-04-21 18:30 31.85229 -86.89272 33915 ft 410 kts 298°
2026-04-21 18:31 31.88100 -86.95065 33906 ft 410 kts 298°
2026-04-21 18:31 31.91006 -87.00897 33900 ft 414 kts 298°